COSMOS 1275 DEB, 12690

Orbit data source: Space-Track

COSMOS 1275 DEB, 12690 is space debris in LEO originally from a launch on Thu, 04 Jun 1981 UTC launched from the Plesetsk Missile And Space Complex (PKMTR). Debris objects in space refer to the collection of defunct objects orbiting the Earth. Examples of debris include non-operational satellites, rocket bodies, and fragments generated from explosions, collisions, or faulty payload assembly.

Loading next visibility...
Identifier
12690, 1981-053AJ
Orbit
LEO
Last TLE update
10 hours ago
Origin
Manufacturer
Unknown
Mission
Spacecraft
Bus & Motor
Unknown
Mass
Unknown
Launch date (UTC)
1981-06-04 (44 years ago)
Launch vehicle
Unknown
Launch site
Plesetsk Missile And Space Complex (PKMTR)
Object type
Payload
Rocket body
Debris
Shape & HBR
Unknown
Radar Cross Section
Medium (>0.1 m² and <1 m²)

Expand to show TLE details & history

TLE from 10 hours ago
0 COSMOS 1275 DEB
1 12690U 81053AJ  25128.83480187  .00002135  00000-0  18067-2 0  9997
2 12690  82.9495 279.1919 0093138 180.6083 327.3596 13.85191920188129
Epoch: 2025-05-08T20:02Z
Definitive object data (Epoch: 2025-05-08T20:02:06.881Z)
Latitude
32.39683°
Longitude
-72.71383°
Altitude
892.44 km
Speed
7.438 km/s
True Right ascension
06h 18m 51s
True Declination
32° 14' 40"
Sunlit
Object was in daylight at TLE epoch
Visualization TLE readout
Latitude
-35.19361°
Longitude
106.48698°
Altitude
1,014.675 km
Speed
7.315 km/s
Apparent Right ascension
21h 23m 39s
Apparent Declination
-53° 08' 29"
Sunlit
Object is in full shadow
Visualization observer readout
Local Sidereal Time
13:41:47
Azimuth
129.61° SE
Elevation
-45.336°
Doppler factor
1
Orbital elements
Apogee altitude
1,010.848 km
Perigee altitude
874.479 km
Semi-major axis
7,320.8 km
Eccentricity
0.0093138
Inclination
82.9495°
RAAN
279.1919°
Arg. of periapsis
180.6083°
True anomaly
326.77826°
Mean anomaly
327.3596°
Eccentric anomaly
327.0695°
Mean motion
3.46502 °/min
BSTAR
0.0018067
Orbital period
103.9 mins
Loading maneuver chart data...
Loading SW <> Apogee altitude chart data...
Loading historical data...
Loading historical data...
Loading historical data...
Loading historical data...
Loading historical data...
Loading historical data...
Loading historical data...

COSMOS 1275 DEB Visibility forecast

Observer location: undefined°, undefined°

Span
Click to sort rows by Start time (UTC) header in descending order
Start Az.
Max El. time (UTC)
Max El. Az.
Max El.
End time (UTC)
End Az.
7 mins2025-05-09 09:20:05.829Z116.897° SE2025-05-09 09:23:05.829Z85.844° E17.441°2025-05-09 09:27:05.829Z44.297° NE
10 mins2025-05-09 11:03:05.829Z201.321° SSW2025-05-09 11:07:05.829Z258.374° W41.939°2025-05-09 11:13:05.829Z359.996° N
9 mins2025-05-09 21:56:05.829Z352.176° N2025-05-09 22:00:05.829Z299.892° NW44.952°2025-05-09 22:05:05.829Z175.968° S
|